User: anonymous   Login
Location: Unspecified
(0.0000°N, 0.0000°E)
Time: 11:07:32
(UTC+00:00)
Language:

STARLINK-30581 - Orbit

View from above orbital plane
View from above orbital plane
View from above satellite
View from above satellite

Ground track
Ground track

The orbit is defined by the following mean orbital elements,

1 58096U          26145.64304110 +.00000000 +00000-0 +68376-4 0 00002
2 58096  43.0028   3.3813 0001624 263.8894  96.1773 15.27579688    09
Epoch (UTC): 25 May 2026 15:25:58
Eccentricity: 0.0001624
inclination: 43.0028°
perigee height: 482 km
apogee height: 484 km
right ascension of ascending node: 3.3813°
argument of perigee: 263.8894°
revolutions per day: 15.27579688
mean anomaly at epoch: 96.1773°

The dashed part of the orbit path shows where the satellite is in the earth's shadow,  

DLR